Temperature
14 15 15 15 18 19 20 20 20 19 19 18 18 19 20 21 21 20 16 16 16 16 16 16 16 16 16 16 16 16 16 16 16 16 16 16 16 16 16 16 16 16 16 16 16 16 16 16 16
14 14 14 16 19 20 20 20 19 19 18 16 17 17 19 19 17 16 15 15 15 15 15 15 16 15 15 15 15 16 16 16 16 16 16 16 16 16 16 16 16 16 16 16 16 16 16 16 16
14 14 15 18 18 20 20 19 19 18 16 16 17 17 18 18 16 15 15 15 15 15 15 15 15 15 15 15 15 15 15 16 16 16 16 16 16 16 16 15 15 16 16 15 16 16 16 16 16
13 14 15 18 18 18 19 18 17 17 16 16 17 17 16 15 15 15 15 15 15 14 15 15 15 15 15 15 15 15 15 15 15 15 15 15 16 16 16 15 15 15 15 15 15 15 15 15 15
13 15 17 17 17 18 17 17 16 17 17 16 16 17 16 14 15 15 15 15 14 14 14 15 15 15 15 15 15 15 15 15 15 15 15 15 15 15 15 15 15 15 15 15 15 15 15 15 15
13 16 17 17 18 17 17 15 16 17 17 16 16 16 16 14 14 14 14 14 14 14 14 14 14 15 15 15 15 15 15 15 15 15 15 15 15 15 15 15 15 15 15 15 15 15 15 15 15
15 16 17 17 17 17 17 15 16 17 17 16 15 16 16 14 14 14 14 14 14 14 14 14 14 14 14 14 15 15 15 15 15 15 15 15 15 15 15 15 15 15 15 15 15 15 15 15 15
13 15 15 16 16 17 16 14 14 15 16 14 14 16 16 13 13 13 13 13 13 13 13 13 13 14 14 14 14 14 14 15 15 15 15 15 15 15 15 15 15 15 15 15 15 15 15 15 15
12 15 15 16 16 16 15 14 14 13 14 13 13 14 13 13 13 12 12 13 13 13 13 13 13 13 13 14 14 14 14 14 14 14 14 14 14 14 14 14 14 14 15 15 15 15 14 14 14
13 14 15 15 15 15 14 14 14 13 14 14 13 13 13 13 12 12 12 12 12 13 13 13 13 13 13 13 13 14 14 14 14 14 14 14 14 14 14 14 14 14 14 14 14 14 14 14 14
13 14 14 13 13 13 13 13 13 14 14 15 14 13 13 12 12 12 12 12 12 12 12 12 12 13 13 13 13 13 13 13 14 14 14 14 14 14 14 14 14 14 14 14 14 14 14 14 14
12 13 12 12 12 12 13 13 13 13 14 13 13 12 12 12 12 12 12 12 12 12 12 12 12 12 12 13 13 13 13 13 13 14 14 14 14 14 14 14 14 14 14 14 14 14 13 14 14
12 12 11 11 11 11 11 12 12 12 12 12 12 12 12 12 11 11 11 11 11 11 12 12 12 12 12 12 13 13 13 13 13 13 13 13 13 13 13 13 13 13 13 13 14 13 13 13 13
12 11 11 11 11 11 11 12 12 12 12 11 11 11 11 11 11 11 11 11 11 11 11 12 12 12 12 12 12 12 12 13 13 13 13 13 13 13 13 13 13 13 13 13 13 13 13 13 13
10 11 12 12 11 11 11 12 13 12 11 11 11 11 11 11 11 11 11 11 11 11 11 11 12 12 12 12 12 12 12 12 12 13 13 13 13 13 13 13 13 13 13 13 13 13 13 13 13
11 12 13 13 12 11 11 13 14 12 11 12 11 11 10 10 10 10 10 11 11 11 11 11 11 11 11 12 12 12 12 12 12 12 12 12 13 13 13 13 13 13 13 13 13 13 12 12 12
12 13 13 13 12 11 11 13 14 11 11 12 11 11 10 10 10 10 10 10 10 10 11 11 11 11 11 11 11 12 11 12 12 12 12 12 12 12 12 12 12 12 12 12 12 12 12 12 12
13 13 12 13 12 11 11 12 13 12 11 11 11 11 10 10 10 10 10 10 10 10 10 10 11 11 11 11 11 11 11 11 11 11 12 12 12 12 12 12 12 12 12 12 12 12 12 12 12
12 12 12 12 12 11 11 12 13 12 11 11 11 10 10 10 10 10 10 10 10 10 10 10 11 11 11 11 11 11 11 11 11 11 11 11 11 11 12 12 12 12 12 12 11 12 11 11 11
10 11 12 12 11 10 11 11 12 12 11 10 10 10 10 9 9 9 9 9 9 9 10 10 10 10 11 11 11 11 11 11 11 11 11 11 11 11 11 11 11 11 11 11 11 11 11 11 11
10 11 11 11 10 10 10 12 12 12 10 10 9 9 9 9 9 8 9 9 9 9 9 9 9 10 10 10 10 10 10 10 10 10 11 11 11 11 11 11 11 11 11 11 11 11 11 11 11
11 11 10 10 10 11 11 11 13 12 11 10 10 9 9 8 8 8 8 8 9 9 9 9 9 9 10 10 10 10 10 10 10 10 10 10 10 10 10 11 10 10 10 10 10 10 10 10 10
11 9 9 9 10 10 10 10 13 11 11 11 10 9 8 8 8 8 8 8 8 9 9 9 9 9 9 9 10 10 10 10 10 10 10 10 10 10 10 10 10 10 10 10 10 10 10 10 10
9 9 9 9 9 9 11 11 13 12 12 12 11 9 8 8 8 8 8 8 8 8 8 8 9 9 9 9 9 9 9 9 9 9 9 9 10 10 10 10 10 10 10 10 10 9 9 9 9
9 9 10 9 10 11 10 10 12 12 11 11 10 9 8 7 7 7 7 7 8 8 8 8 8 8 8 9 9 9 9 9 9 9 9 9 9 9 9 9 9 9 9 9 9 9 9 9 9
9 10 10 11 11 12 9 10 12 10 9 8 8 8 7 7 7 7 7 7 7 8 8 8 8 8 8 8 8 8 9 9 9 9 9 8 8 9 9 9 9 9 9 9 9 9 9 9 9
9 9 10 10 9 10 12 11 10 9 9 8 8 7 7 7 6 6 6 7 7 7 7 8 8 8 8 8 8 8 8 8 8 8 8 8 8 8 8 8 8 8 8 8 8 8 8 8 8
9 9 8 9 9 10 12 11 12 10 9 9 8 7 7 6 6 6 6 6 7 7 7 7 7 7 7 8 8 8 8 8 8 8 8 8 8 8 8 8 8 8 8 7 7 8 8 8 8
7 8 9 9 10 10 11 12 11 10 10 9 8 7 6 6 6 6 6 6 6 6 6 6 6 6 7 7 7 7 7 7 7 7 7 7 7 7 7 7 7 7 7 7 7 7 7 7 7
8 8 9 9 8 9 10 11 9 9 8 8 7 6 6 5 5 5 5 5 5 6 6 6 6 6 6 6 6 6 6 7 7 7 7 7 7 7 7 7 7 7 7 7 7 7 7 6 6
Wind_Speed
3 2 2 2 4 5 9 7 5 5 5 3 3 4 5 5 4 0 3 3 5 7 7 8 7 7 8 9 10 9 9 9 9 9 10 10 10 10 10 10 10 10 10 11 11 10 11 11 11
2 1 2 3 5 8 8 7 9 6 2 1 3 5 5 5 2 1 2 4 5 7 7 7 7 7 7 8 9 9 9 9 9 9 9 9 9 9 10 10 10 10 10 10 10 10 10 10 10
1 1 3 4 6 9 7 3 5 4 3 3 3 4 5 3 2 2 2 4 5 7 7 7 7 7 7 7 8 8 9 9 9 9 8 8 9 9 10 10 9 9 10 10 10 10 10 9 9
2 2 3 5 10 8 6 2 2 4 4 4 4 4 3 1 1 1 2 5 6 6 6 7 7 7 7 7 7 8 8 8 9 9 9 9 8 9 9 9 9 9 9 9 9 9 9 9 9
1 3 5 7 10 7 6 4 4 5 5 4 5 5 3 2 1 1 3 5 6 6 6 7 7 7 7 7 7 7 8 8 8 9 9 9 9 8 8 9 9 9 9 9 9 9 9 9 9
3 3 6 10 10 8 7 6 6 7 6 5 5 6 4 2 2 2 3 4 6 6 6 7 8 7 7 7 7 7 8 8 8 8 9 9 9 9 8 9 9 9 8 8 8 8 8 8 8
3 4 7 8 9 9 7 6 8 8 8 6 4 5 4 3 1 2 4 4 5 6 6 7 8 8 8 7 7 7 7 8 8 8 8 9 8 8 9 9 9 9 8 8 8 8 8 8 8
2 3 6 7 9 8 5 5 6 8 8 4 5 6 4 2 1 2 3 4 5 5 5 6 7 7 7 8 7 6 6 7 8 8 8 8 9 9 9 9 9 8 8 8 8 8 8 8 8
3 5 8 8 7 6 5 6 4 4 5 5 6 6 4 1 2 3 4 4 5 5 5 5 6 7 7 7 7 7 6 7 8 8 8 8 8 8 8 8 8 8 7 8 8 8 8 8 8
4 7 8 5 6 5 5 6 5 5 8 8 7 7 5 3 4 5 6 6 6 6 6 6 7 7 7 6 7 7 7 7 8 8 8 8 7 7 7 8 9 8 7 7 8 8 8 7 7
4 7 5 6 6 6 7 7 6 8 10 10 9 7 5 6 6 6 6 7 7 7 5 5 6 7 6 5 6 6 6 6 7 8 8 7 7 6 6 7 8 8 8 7 7 8 6 6 5
5 7 7 6 5 6 8 8 8 11 12 8 8 6 6 8 8 7 6 6 5 6 6 5 5 6 7 6 5 6 5 5 5 7 8 7 5 5 6 5 6 6 5 5 5 5 6 6 6
8 6 6 8 8 9 10 12 11 13 12 9 6 6 8 8 8 7 6 6 5 6 7 6 5 7 7 6 5 5 5 6 6 7 8 8 6 6 6 5 5 5 5 5 4 4 5 5 5
5 7 9 9 10 8 10 12 10 13 9 8 7 8 8 8 8 6 6 6 6 5 6 6 7 6 7 7 6 5 6 6 6 6 8 8 6 6 6 5 4 4 5 4 4 4 4 4 4
4 7 9 9 9 6 7 12 14 12 9 10 9 8 8 8 7 7 6 5 6 5 5 6 6 6 8 8 7 5 6 6 6 6 8 8 7 6 6 5 4 4 5 5 4 4 4 3 4
4 6 7 5 6 6 7 14 10 8 9 11 10 9 8 7 7 6 5 5 5 4 5 5 5 6 6 7 6 5 6 6 6 6 6 8 8 7 6 5 5 5 4 4 3 3 4 4 4
6 8 9 6 5 5 9 13 9 6 9 11 10 9 8 6 6 5 4 4 4 4 4 4 5 7 6 6 5 5 5 5 5 5 5 6 7 8 6 5 5 5 4 3 3 3 3 4 4
7 8 9 9 4 7 11 15 12 8 9 10 9 9 8 7 6 4 3 2 3 3 4 4 4 5 5 5 5 4 5 4 5 4 4 6 6 7 6 5 5 5 4 3 3 4 3 3 3
7 9 12 9 6 7 12 16 15 11 9 9 9 9 8 8 5 3 2 2 2 2 3 3 3 4 4 5 5 5 5 4 4 4 5 6 6 6 5 4 5 4 4 4 4 3 3 2 2
11 12 12 9 5 7 12 16 14 10 10 10 10 9 9 7 4 3 3 2 3 2 2 3 3 4 5 5 5 4 4 3 3 4 5 5 5 6 5 5 4 5 4 4 4 3 3 2 2
13 14 13 10 7 6 8 11 10 7 7 7 8 8 8 7 6 4 3 3 3 3 3 3 3 4 4 5 4 4 4 3 2 3 3 4 5 5 5 5 4 5 5 4 5 4 4 3 3
12 10 11 10 8 6 5 8 9 7 7 7 7 7 7 7 7 5 4 3 3 3 2 3 3 3 4 6 6 7 5 4 3 3 3 4 4 5 5 5 5 5 4 5 5 4 4 4 3
6 3 7 9 9 9 8 8 8 7 9 8 7 7 7 7 6 5 4 4 3 2 3 3 3 3 4 5 6 6 5 4 3 3 3 3 3 3 4 4 5 4 4 5 5 5 4 4 4
5 3 3 5 6 8 10 10 8 7 10 8 8 7 6 6 5 5 4 4 3 3 3 3 3 3 3 4 5 5 5 5 4 4 3 2 2 2 3 3 3 4 4 5 5 5 6 5 4
8 6 4 5 6 7 5 8 8 5 7 8 7 6 6 6 6 5 4 4 4 4 4 3 4 3 3 3 4 4 4 5 5 4 4 3 2 2 2 3 3 3 3 4 4 5 5 6 5
12 10 7 6 6 5 5 9 5 3 3 4 4 5 6 6 5 5 5 5 4 4 4 4 4 4 4 4 4 4 4 3 3 3 3 3 2 2 2 2 2 3 4 4 4 4 4 4 5
8 10 7 4 4 6 7 6 5 4 5 4 4 4 5 6 5 5 5 5 4 4 5 5 5 4 4 4 3 3 4 3 3 3 3 2 2 2 2 2 2 2 3 3 4 4 4 4 4
6 6 6 7 6 8 8 8 6 7 8 5 4 4 4 5 4 5 5 5 5 5 5 5 5 5 4 4 3 2 3 3 3 3 3 3 2 2 2 3 2 2 2 3 3 3 4 4 4
9 8 8 7 6 6 7 5 2 6 7 6 5 4 4 5 5 5 5 5 5 5 5 5 4 4 4 4 3 3 2 2 3 2 2 2 2 2 2 2 3 3 3 3 4 4 4 4 4
10 10 11 8 7 7 8 6 1 3 4 4 4 3 3 4 4 5 5 5 5 5 5 5 5 5 4 3 3 3 2 2 3 2 2 2 2 2 2 2 3 3 3 3 4 4 4 4 4
Wind_Direction
333 310 249 214 210 219 231 219 212 193 201 210 218 223 233 230 233 263 73 134 143 147 148 151 151 153 155 155 150 146 144 141 140 141 145 148 149 150 149 146 140 135 133 133 130 127 123 119 116
317 259 208 210 227 227 226 220 216 212 185 178 207 220 227 229 259 52 123 138 151 151 150 151 144 154 155 154 153 151 151 149 147 145 146 148 151 150 150 149 144 139 136 135 131 128 127 124 122
212 272 208 204 227 235 223 189 212 206 205 207 208 228 240 228 187 167 126 156 160 158 157 149 147 149 151 150 155 152 153 156 155 151 148 147 150 152 151 148 144 140 135 135 133 131 130 128 127
202 180 200 223 229 237 242 197 181 193 199 216 231 230 226 247 204 158 151 171 168 167 165 156 159 155 151 151 157 162 159 158 160 158 154 151 149 152 151 148 144 141 137 135 136 136 134 132 131
203 204 209 227 235 234 234 237 220 219 216 214 234 247 232 190 216 157 166 177 175 173 171 166 163 161 159 157 159 164 166 161 163 164 160 157 154 152 153 149 147 144 141 138 140 141 139 138 137
177 209 225 234 232 232 231 229 228 236 240 236 240 249 241 171 193 187 179 188 187 180 177 171 167 166 164 165 163 165 172 168 164 165 164 161 157 156 151 149 148 148 148 146 144 147 143 142 141
209 213 235 241 240 236 232 219 230 236 238 238 237 240 226 197 218 210 200 201 196 190 184 176 177 175 171 170 168 168 174 177 168 161 163 161 158 156 155 151 151 152 154 155 151 150 151 149 147
225 219 231 233 238 239 219 218 242 241 245 239 225 236 236 211 237 220 206 205 199 195 191 182 181 185 183 178 173 170 173 177 173 165 162 160 158 159 158 159 152 152 156 160 157 152 155 154 151
206 227 234 231 234 240 212 227 243 250 239 232 234 252 280 252 223 216 209 210 206 204 201 193 188 188 191 185 176 174 170 174 176 169 162 168 173 171 169 160 150 151 155 162 161 159 158 159 156
208 230 238 241 242 248 235 247 249 234 238 240 244 252 251 224 219 216 212 214 212 212 211 202 198 192 192 188 183 185 182 183 187 182 177 180 178 173 169 157 152 153 153 159 161 162 161 173 170
214 237 246 245 250 255 252 258 250 246 247 246 246 247 234 224 223 222 222 222 223 216 211 210 203 196 193 190 188 189 186 186 189 186 185 181 178 173 171 166 163 163 166 169 165 172 178 180 174
226 239 246 252 251 251 255 260 256 246 253 270 264 252 238 230 229 225 227 232 231 222 215 208 203 200 197 195 192 193 189 186 186 185 188 182 175 175 171 170 171 171 175 175 178 181 182 186 184
231 246 249 253 257 261 262 258 261 259 260 270 262 241 236 235 235 233 231 230 230 228 220 209 205 204 199 194 194 195 195 190 188 186 187 186 181 179 175 174 173 173 176 178 178 181 182 186 187
244 252 264 266 261 257 256 260 253 257 257 256 244 237 237 236 239 238 232 231 225 227 224 210 200 205 202 197 195 195 195 188 187 186 186 186 185 181 177 177 177 175 178 179 181 182 185 188 190
248 264 266 252 249 247 259 259 242 251 249 250 245 242 239 240 238 236 235 232 233 229 222 209 198 199 201 199 197 193 191 188 183 184 187 184 186 185 178 178 179 176 179 178 179 181 184 187 191
239 249 257 240 235 229 236 260 251 243 242 248 247 242 238 237 235 237 236 233 235 231 217 206 194 195 195 195 192 186 185 186 180 177 180 182 184 186 180 181 180 174 173 173 175 185 188 190 193
228 250 257 260 227 229 232 262 264 252 243 247 245 239 236 237 238 240 236 230 230 227 214 198 193 191 189 188 183 181 180 180 173 171 173 178 183 186 184 182 177 173 170 172 177 183 196 198 191
242 248 256 259 244 237 246 259 266 259 246 245 242 237 234 234 240 240 241 234 229 216 205 193 192 185 177 176 167 170 172 174 168 171 170 173 176 181 181 174 172 172 172 174 181 179 184 197 189
253 253 262 267 268 260 257 265 269 264 249 240 236 234 232 237 237 235 240 228 206 194 182 184 185 173 166 171 169 173 178 176 172 168 171 173 170 171 174 170 169 175 176 177 182 181 178 176 185
240 253 263 273 262 263 272 271 270 256 245 238 233 231 230 229 230 234 226 207 193 186 182 174 184 174 171 177 177 180 170 170 173 167 168 172 171 170 171 171 175 178 174 174 178 183 184 177 182
236 243 254 266 290 252 273 269 250 239 231 234 234 230 231 226 220 220 213 203 191 183 187 181 180 173 171 170 163 149 139 139 156 168 171 176 173 170 165 173 180 182 180 182 183 185 191 187 180
246 239 247 256 264 255 242 272 247 228 226 222 224 223 224 224 219 209 201 195 184 186 181 177 171 165 167 166 164 164 170 177 188 184 181 177 176 176 174 173 178 187 185 190 191 188 197 192 185
238 219 232 244 253 262 235 250 254 212 218 218 219 221 223 218 205 195 186 181 166 159 156 156 152 148 151 160 166 167 172 174 162 160 165 171 172 177 179 180 183 190 193 195 197 195 195 201 200
192 180 225 233 240 251 232 231 256 216 221 217 220 217 213 206 194 184 171 156 147 146 144 143 145 141 142 152 162 166 169 162 155 160 166 173 175 179 180 178 186 193 198 196 199 202 201 203 206
195 201 228 222 223 243 206 227 249 232 222 220 223 214 205 196 186 177 171 166 160 156 155 154 149 139 136 144 159 169 171 166 169 173 175 175 180 185 198 195 194 198 201 197 197 201 207 208 209
200 208 220 239 246 248 210 235 242 225 216 211 216 205 197 194 187 181 182 179 175 168 164 160 158 148 144 144 153 164 167 170 172 175 175 184 194 195 197 199 195 197 201 201 198 197 205 207 212
192 214 233 254 272 265 240 242 256 213 196 190 191 186 195 198 194 191 187 185 183 175 170 166 161 151 148 148 145 152 162 167 167 171 177 186 190 180 180 186 195 197 195 199 200 199 202 204 211
225 191 185 209 230 248 250 245 235 199 197 188 186 184 193 200 200 199 194 193 189 179 167 160 161 157 152 148 146 143 152 154 159 164 167 177 190 188 177 178 185 196 201 198 198 201 206 204 212
191 199 211 217 236 245 256 250 213 205 198 197 206 206 201 200 201 198 193 190 184 173 166 162 163 157 153 152 151 142 143 153 154 160 172 180 184 189 193 201 194 194 205 209 204 208 209 212 217
213 212 203 214 225 233 257 262 86 198 201 202 215 217 212 205 197 189 187 180 177 175 173 172 171 168 167 162 156 152 150 160 165 172 178 180 181 191 200 198 194 196 206 214 212 211 213 216 221
Height
1517 1518 1519 1522 1521 1516 1512 1509 1511 1513 1514 1516 1517 1517 1515 1514 1515 1519 1519 1516 1517 1519 1520 1521 1522 1524 1525 1526 1527 1529 1530 1531 1532 1533 1534 1535 1536 1537 1538 1539 1540 1540 1541 1542 1543 1543 1544 1544 1545
1517 1518 1521 1521 1515 1512 1509 1509 1511 1512 1515 1517 1517 1517 1516 1515 1516 1517 1516 1516 1517 1518 1520 1521 1522 1523 1524 1526 1527 1528 1529 1530 1531 1532 1534 1535 1536 1537 1538 1539 1540 1540 1541 1542 1543 1543 1544 1544 1545
1517 1518 1521 1517 1512 1507 1506 1509 1511 1514 1516 1517 1516 1516 1516 1515 1516 1516 1515 1515 1517 1518 1519 1520 1521 1522 1523 1525 1526 1527 1528 1530 1531 1532 1533 1534 1535 1536 1537 1538 1539 1540 1541 1542 1542 1543 1544 1544 1545
1518 1520 1520 1515 1510 1508 1508 1510 1513 1514 1516 1516 1516 1515 1515 1515 1515 1514 1514 1515 1516 1517 1518 1519 1520 1521 1522 1524 1525 1526 1527 1528 1530 1531 1532 1533 1535 1536 1537 1538 1539 1540 1541 1542 1542 1543 1544 1544 1545
1518 1519 1515 1512 1509 1509 1511 1513 1514 1513 1514 1515 1516 1513 1513 1513 1512 1512 1513 1514 1515 1516 1517 1518 1519 1520 1521 1522 1523 1525 1526 1527 1529 1530 1531 1533 1534 1535 1536 1537 1539 1540 1541 1541 1542 1543 1543 1544 1545
1519 1516 1512 1508 1506 1509 1511 1514 1514 1513 1513 1514 1515 1513 1512 1512 1511 1511 1512 1513 1514 1515 1515 1517 1518 1519 1520 1521 1522 1523 1525 1526 1528 1529 1530 1532 1533 1534 1535 1537 1538 1539 1540 1541 1542 1542 1543 1544 1544
1518 1514 1509 1506 1506 1507 1510 1513 1512 1511 1511 1513 1513 1512 1510 1510 1510 1510 1510 1511 1512 1513 1514 1515 1516 1517 1518 1520 1521 1522 1523 1525 1526 1528 1529 1530 1532 1533 1534 1536 1537 1538 1539 1540 1541 1542 1542 1543 1544
1516 1515 1510 1508 1506 1506 1509 1511 1511 1510 1509 1511 1512 1510 1508 1509 1508 1508 1509 1509 1510 1511 1512 1512 1514 1515 1516 1518 1519 1520 1522 1523 1525 1526 1528 1529 1530 1532 1533 1535 1536 1537 1538 1539 1540 1541 1542 1543 1544
1516 1515 1507 1505 1506 1505 1508 1509 1510 1509 1509 1508 1508 1508 1507 1506 1506 1506 1507 1507 1508 1509 1509 1510 1511 1512 1514 1515 1517 1518 1520 1521 1523 1524 1526 1528 1529 1530 1532 1533 1535 1536 1537 1538 1540 1541 1541 1542 1543
1515 1510 1505 1506 1506 1506 1507 1508 1508 1507 1506 1506 1505 1504 1504 1504 1504 1504 1504 1504 1505 1505 1506 1507 1508 1509 1511 1513 1514 1516 1518 1519 1521 1522 1524 1526 1527 1529 1530 1532 1533 1535 1536 1537 1538 1540 1540 1541 1542
1512 1507 1506 1507 1508 1508 1507 1507 1506 1505 1502 1502 1501 1501 1502 1502 1502 1502 1501 1502 1502 1502 1503 1503 1504 1506 1508 1510 1512 1514 1515 1517 1518 1520 1522 1524 1525 1527 1529 1530 1532 1534 1535 1536 1537 1538 1539 1540 1541
1510 1508 1508 1507 1507 1507 1506 1505 1504 1502 1500 1500 1499 1499 1499 1499 1499 1499 1499 1499 1499 1499 1500 1500 1501 1503 1505 1507 1509 1511 1512 1514 1516 1517 1519 1521 1523 1525 1527 1528 1530 1532 1533 1534 1535 1536 1537 1539 1539
1508 1506 1506 1506 1506 1505 1504 1502 1501 1498 1498 1497 1496 1496 1496 1496 1496 1496 1496 1496 1496 1496 1496 1497 1498 1500 1502 1504 1506 1508 1509 1511 1513 1515 1517 1519 1521 1523 1525 1527 1528 1530 1531 1532 1534 1535 1536 1537 1538
1506 1505 1504 1504 1503 1502 1501 1498 1498 1492 1494 1494 1493 1493 1493 1493 1493 1492 1492 1492 1492 1492 1493 1493 1495 1497 1499 1501 1503 1505 1506 1508 1510 1512 1514 1516 1519 1521 1523 1524 1526 1528 1529 1530 1532 1533 1534 1535 1536
1506 1504 1501 1500 1500 1499 1499 1493 1490 1490 1491 1490 1490 1489 1489 1489 1489 1489 1488 1488 1489 1489 1490 1490 1491 1493 1496 1498 1500 1502 1504 1506 1507 1510 1512 1514 1516 1519 1520 1522 1524 1526 1527 1528 1530 1531 1532 1533 1533
1504 1500 1495 1493 1496 1496 1498 1485 1484 1486 1487 1486 1486 1486 1486 1486 1485 1486 1486 1485 1486 1486 1486 1487 1489 1491 1492 1495 1497 1499 1501 1503 1505 1507 1509 1512 1514 1516 1518 1520 1522 1523 1525 1526 1527 1529 1530 1531 1531
1498 1493 1489 1490 1492 1493 1492 1482 1481 1483 1483 1482 1482 1482 1482 1482 1482 1482 1482 1482 1482 1483 1483 1484 1486 1488 1489 1492 1494 1497 1499 1501 1502 1504 1507 1509 1511 1514 1516 1518 1519 1521 1522 1524 1525 1526 1528 1529 1529
1490 1489 1488 1487 1488 1490 1487 1481 1478 1480 1480 1478 1478 1479 1479 1479 1478 1479 1479 1479 1480 1481 1481 1482 1484 1486 1487 1489 1492 1495 1496 1498 1500 1502 1504 1507 1509 1511 1513 1515 1517 1518 1520 1521 1523 1524 1525 1526 1527
1490 1489 1486 1485 1487 1488 1483 1478 1474 1475 1476 1475 1475 1475 1475 1476 1476 1476 1477 1477 1477 1477 1479 1480 1481 1482 1485 1487 1489 1492 1494 1496 1498 1500 1502 1504 1506 1508 1510 1512 1514 1516 1517 1518 1520 1521 1523 1524 1525
1492 1489 1485 1484 1487 1486 1480 1474 1470 1470 1471 1471 1471 1472 1472 1473 1473 1474 1474 1474 1474 1475 1476 1477 1478 1480 1482 1485 1487 1490 1492 1494 1496 1498 1500 1502 1504 1506 1508 1509 1511 1513 1515 1516 1517 1519 1520 1521 1522
1488 1486 1483 1483 1484 1483 1481 1468 1464 1465 1467 1468 1468 1469 1470 1470 1470 1471 1471 1471 1471 1472 1474 1475 1476 1478 1480 1483 1486 1488 1490 1492 1494 1496 1497 1500 1502 1504 1505 1507 1509 1510 1511 1513 1514 1516 1518 1518 1520
1482 1482 1484 1485 1484 1475 1478 1467 1457 1459 1462 1463 1465 1466 1466 1467 1468 1468 1468 1469 1469 1471 1472 1473 1475 1477 1478 1481 1483 1485 1487 1489 1492 1493 1495 1498 1500 1502 1503 1504 1506 1508 1509 1510 1512 1513 1515 1516 1517
1478 1482 1484 1483 1480 1477 1473 1471 1452 1456 1456 1457 1460 1462 1463 1464 1465 1465 1466 1467 1468 1470 1471 1472 1473 1475 1476 1479 1481 1483 1486 1488 1490 1492 1493 1495 1497 1499 1501 1502 1503 1505 1506 1508 1509 1511 1512 1513 1515
1481 1483 1483 1482 1479 1474 1463 1464 1447 1448 1449 1451 1455 1458 1460 1461 1462 1464 1465 1466 1467 1468 1470 1471 1472 1473 1475 1477 1479 1481 1484 1485 1487 1489 1491 1493 1494 1496 1497 1499 1500 1502 1503 1505 1506 1508 1509 1510 1512
1479 1478 1477 1474 1471 1459 1460 1460 1447 1445 1448 1450 1452 1455 1457 1459 1460 1461 1462 1464 1465 1466 1468 1469 1471 1472 1473 1475 1478 1480 1482 1483 1485 1487 1488 1490 1491 1493 1494 1495 1497 1498 1500 1501 1503 1504 1505 1507 1508
1470 1469 1467 1463 1455 1449 1461 1453 1442 1447 1449 1450 1451 1452 1454 1456 1457 1458 1460 1461 1463 1464 1466 1467 1469 1471 1472 1474 1476 1478 1480 1481 1483 1485 1486 1487 1489 1490 1491 1492 1494 1495 1496 1498 1500 1500 1502 1503 1504
1467 1466 1463 1463 1462 1457 1444 1444 1444 1445 1447 1449 1450 1450 1452 1453 1455 1456 1457 1459 1460 1462 1464 1466 1467 1469 1471 1472 1474 1476 1478 1479 1481 1483 1484 1485 1486 1488 1489 1490 1491 1492 1493 1494 1496 1497 1498 1499 1500
1464 1462 1466 1465 1459 1450 1437 1437 1434 1439 1441 1444 1447 1448 1449 1451 1452 1454 1455 1457 1459 1460 1462 1464 1466 1467 1469 1471 1472 1474 1476 1477 1479 1480 1482 1483 1484 1485 1486 1487 1488 1489 1490 1491 1492 1493 1494 1495 1496
1462 1463 1458 1455 1451 1446 1438 1431 1432 1435 1438 1441 1444 1446 1447 1448 1449 1451 1452 1454 1457 1458 1460 1462 1464 1466 1467 1469 1471 1472 1474 1475 1477 1478 1479 1480 1481 1482 1483 1484 1485 1486 1487 1488 1489 1490 1490 1491 1492
1453 1452 1453 1453 1451 1448 1440 1434 1436 1437 1439 1441 1443 1444 1445 1447 1448 1449 1451 1452 1454 1456 1458 1460 1462 1464 1466 1467 1469 1470 1471 1473 1474 1476 1477 1478 1478 1479 1480 1481 1481 1482 1484 1485 1485 1486 1487 1487 1488